Weather History for Caldwell, ID

Change the Weather History Date:

Wednesday, May 22, 2013

  Actual Average (KBOI) Record (KBOI)
Temperature  
Mean Temperature 50 °F 61 °F  
Max Temperature 57 °F 74 °F 93 °F (1988)
Min Temperature 42 °F 48 °F 28 °F (1960)
Degree Days  
Heating Degree Days 16 6  
Month to date heating degree days 182  
Since 1 July heating degree days 5406  
Cooling Degree Days 0 2  
Month to date cooling degree days 23  
Year to date cooling degree days 26  
Moisture  
Dew Point 22 °F    
Average Humidity 35    
Maximum Humidity 53    
Minimum Humidity 20    
Precipitation  
Precipitation 0.00 in 0.04 in 1.41 in (2010)
Month to date precipitation 1.00  
Year to date precipitation 5.85  
Snow  
Snow 0.00 in 0.00 in T in (2010)
Month to date snowfall 0.0  
Since 1 July snowfall 19.2  
Snow Depth -    
Sea Level Pressure  
Sea Level Pressure 29.90 in    
Wind  
Wind Speed 12 mph (NW)    
Max Wind Speed 21 mph    
Max Gust Speed 28 mph    
Visibility 10 miles    
Events      
T = Trace of Precipitation, MM = Missing Value Source: NWS Daily Summary

Daily Weather History Graph

Daily Weather History Graph

Search for Another Location

Airport:

Trip Planner

Search our weather history database for the weather conditions in past years. The results will help you decide how hot, cold, wet, or windy it might be!

Date:

Astronomy

May. 22, 2013 Rise Set
Actual Time 6:14 AM MDT 9:12 PM MDT
Civil Twilight 5:40 AM MDT 9:46 PM MDT
Nautical Twilight 4:57 AM MDT 10:30 PM MDT
Astronomical Twilight 4:06 AM MDT 11:21 PM MDT
Moon 6:36 PM MDT (5/22) 4:26 AM MDT (5/22)
Length of Visible Light 16h 06m
Length of Day
14h 58m
Waxing Gibbous, 92% of the Moon is Illuminated
May 22
Waxing Gibbous
May 24
Full
May 31
Last Quarter
Jun 8
New
Jun 16
First Quarter

Hourly Weather History & Observations

Time (MDT) Temp. Windchill Dew Point Humidity Pressure Visibility Wind Dir Wind Speed Gust Speed Precip Events Conditions
12:15 AM 53.6 °F - 30.2 °F 41% 29.72 in 10.0 mi WNW 20.7 mph 27.6 mph N/A   Clear
12:35 AM 53.6 °F - 30.2 °F 41% 29.73 in 10.0 mi WNW 19.6 mph 27.6 mph N/A   Clear
12:55 AM 51.8 °F - 30.2 °F 44% 29.74 in 10.0 mi WNW 20.7 mph 25.3 mph N/A   Clear
1:15 AM 51.8 °F - 30.2 °F 44% 29.76 in 10.0 mi WNW 16.1 mph - N/A   Clear
1:35 AM 48.2 °F - 30.2 °F 50% 29.78 in 10.0 mi NW 11.5 mph - N/A   Clear
1:55 AM 48.2 °F - 28.4 °F 46% 29.79 in 10.0 mi WNW 10.4 mph - N/A   Clear
2:15 AM 46.4 °F 42.9 °F 28.4 °F 50% 29.79 in 10.0 mi NW 6.9 mph - N/A   Clear
2:35 AM 46.4 °F 41.1 °F 26.6 °F 46% 29.80 in 10.0 mi NW 11.5 mph - N/A   Clear
2:55 AM 46.4 °F 41.9 °F 24.8 °F 43% 29.81 in 10.0 mi NW 9.2 mph - N/A   Clear
3:15 AM 44.6 °F 40.2 °F 24.8 °F 46% 29.82 in 10.0 mi NW 8.1 mph - N/A   Clear
3:35 AM 42.8 °F 38.6 °F 26.6 °F 53% 29.82 in 10.0 mi NNW 6.9 mph - N/A   Clear
3:55 AM 42.8 °F 39.3 °F 24.8 °F 49% 29.83 in 10.0 mi WNW 5.8 mph - N/A   Clear
4:15 AM 42.8 °F 38.0 °F 24.8 °F 49% 29.83 in 10.0 mi NW 8.1 mph - N/A   Scattered Clouds
4:35 AM 44.6 °F 41.4 °F 24.8 °F 46% 29.84 in 10.0 mi NW 5.8 mph - N/A   Mostly Cloudy
4:55 AM 46.4 °F 41.5 °F 24.8 °F 43% 29.84 in 10.0 mi WNW 10.4 mph - N/A   Overcast
5:15 AM 46.4 °F 42.4 °F 24.8 °F 43% 29.84 in 10.0 mi NNW 8.1 mph - N/A   Mostly Cloudy
5:35 AM 44.6 °F 39.7 °F 24.8 °F 46% 29.84 in 10.0 mi NNW 9.2 mph - N/A   Scattered Clouds
5:55 AM 44.6 °F 40.2 °F 24.8 °F 46% 29.84 in 10.0 mi NNW 8.1 mph - N/A   Mostly Cloudy
6:15 AM 44.6 °F 39.2 °F 24.8 °F 46% 29.85 in 10.0 mi NW 10.4 mph - N/A   Mostly Cloudy
6:35 AM 44.6 °F 39.2 °F 24.8 °F 46% 29.85 in 10.0 mi NW 10.4 mph - N/A   Mostly Cloudy
6:55 AM 44.6 °F 38.1 °F 23.0 °F 43% 29.86 in 10.0 mi NW 13.8 mph - N/A   Mostly Cloudy
7:15 AM 44.6 °F 37.4 °F 23.0 °F 43% 29.87 in 10.0 mi West 16.1 mph - N/A   Mostly Cloudy
7:35 AM 44.6 °F 38.8 °F 24.8 °F 46% 29.88 in 10.0 mi West 11.5 mph - N/A   Overcast
7:55 AM 44.6 °F 38.4 °F 24.8 °F 46% 29.89 in 10.0 mi West 12.7 mph - N/A   Overcast
8:15 AM 44.6 °F 38.4 °F 21.2 °F 39% 29.91 in 10.0 mi West 12.7 mph - N/A   Overcast
8:35 AM 44.6 °F 37.8 °F 23.0 °F 43% 29.91 in 10.0 mi West 15.0 mph - N/A   Overcast
8:55 AM 44.6 °F 38.1 °F 21.2 °F 39% 29.92 in 10.0 mi West 13.8 mph - N/A   Overcast
9:15 AM 44.6 °F 38.1 °F 21.2 °F 39% 29.93 in 10.0 mi West 13.8 mph 20.7 mph N/A   Mostly Cloudy
9:35 AM 44.6 °F 37.8 °F 21.2 °F 39% 29.94 in 10.0 mi West 15.0 mph - N/A   Overcast
9:55 AM 46.4 °F 41.1 °F 21.2 °F 37% 29.95 in 10.0 mi West 11.5 mph - N/A   Mostly Cloudy
10:15 AM 48.2 °F - 21.2 °F 34% 29.95 in 10.0 mi WNW 11.5 mph 20.7 mph N/A   Overcast
10:35 AM 46.4 °F 41.1 °F 21.2 °F 37% 29.96 in 10.0 mi NW 11.5 mph - N/A   Overcast
10:55 AM 48.2 °F - 21.2 °F 34% 29.96 in 10.0 mi WNW 8.1 mph 16.1 mph N/A   Overcast
11:15 AM 48.2 °F - 21.2 °F 34% 29.96 in 10.0 mi WNW 12.7 mph - N/A   Mostly Cloudy
11:35 AM 48.2 °F - 21.2 °F 34% 29.96 in 10.0 mi WNW 11.5 mph - N/A   Mostly Cloudy
11:55 AM 51.8 °F - 19.4 °F 28% 29.96 in 10.0 mi WSW 17.3 mph 20.7 mph N/A   Partly Cloudy
12:15 PM 51.8 °F - 17.6 °F 26% 29.96 in 10.0 mi SW 11.5 mph 18.4 mph N/A   Clear
12:35 PM 51.8 °F - 17.6 °F 26% 29.96 in 10.0 mi West 13.8 mph 19.6 mph N/A   Scattered Clouds
12:55 PM 51.8 °F - 17.6 °F 26% 29.96 in 10.0 mi WSW 9.2 mph 19.6 mph N/A   Scattered Clouds
1:15 PM 53.6 °F - 17.6 °F 24% 29.96 in 10.0 mi SW 11.5 mph - N/A   Partly Cloudy
1:35 PM 51.8 °F - 15.8 °F 24% 29.96 in 10.0 mi WSW 10.4 mph 18.4 mph N/A   Clear
1:55 PM 53.6 °F - 17.6 °F 24% 29.96 in 10.0 mi West 9.2 mph 16.1 mph N/A   Partly Cloudy
2:15 PM 55.4 °F - 17.6 °F 23% 29.95 in 10.0 mi NW 10.4 mph - N/A   Mostly Cloudy
2:35 PM 55.4 °F - 14.0 °F 20% 29.96 in 10.0 mi West 8.1 mph 21.9 mph N/A   Overcast
2:55 PM 55.4 °F - 15.8 °F 21% 29.95 in 10.0 mi West 15.0 mph 19.6 mph N/A   Partly Cloudy
3:15 PM 55.4 °F - 15.8 °F 21% 29.96 in 10.0 mi WSW 9.2 mph 18.4 mph N/A   Clear
3:35 PM 55.4 °F - 15.8 °F 21% 29.95 in 10.0 mi West 10.4 mph 19.6 mph N/A   Scattered Clouds
3:55 PM 55.4 °F - 15.8 °F 21% 29.95 in 10.0 mi WSW 5.8 mph - N/A   Scattered Clouds
4:15 PM 57.2 °F - 17.6 °F 21% 29.94 in 10.0 mi NNE 3.5 mph - N/A   Clear
4:35 PM 57.2 °F - 17.6 °F 21% 29.94 in 10.0 mi South 4.6 mph - N/A   Scattered Clouds
4:55 PM 55.4 °F - 15.8 °F 21% 29.94 in 10.0 mi NE 3.5 mph - N/A   Mostly Cloudy
5:15 PM 57.2 °F - 17.6 °F 21% 29.93 in 10.0 mi NNE 5.8 mph - N/A   Mostly Cloudy
5:35 PM 57.2 °F - 19.4 °F 23% 29.92 in 10.0 mi NNE 8.1 mph - N/A   Scattered Clouds
5:55 PM 57.2 °F - 17.6 °F 21% 29.92 in 10.0 mi North 9.2 mph - N/A   Scattered Clouds
6:15 PM 57.2 °F - 17.6 °F 21% 29.92 in 10.0 mi Calm Calm - N/A   Clear
6:35 PM 57.2 °F - 15.8 °F 20% 29.92 in 10.0 mi NNE 4.6 mph - N/A   Clear
6:55 PM 57.2 °F - 17.6 °F 21% 29.91 in 10.0 mi NNW 4.6 mph - N/A   Clear
7:15 PM 57.2 °F - 19.4 °F 23% 29.91 in 10.0 mi North 6.9 mph - N/A   Clear
7:35 PM 57.2 °F - 19.4 °F 23% 29.91 in 10.0 mi North 9.2 mph - N/A   Clear
7:55 PM 57.2 °F - 19.4 °F 23% 29.91 in 10.0 mi North 6.9 mph - N/A   Clear
8:15 PM 55.4 °F - 19.4 °F 25% 29.91 in 10.0 mi North 8.1 mph - N/A   Clear
8:35 PM 53.6 °F - 21.2 °F 28% 29.91 in 10.0 mi North 6.9 mph - N/A   Clear
8:55 PM 51.8 °F - 21.2 °F 30% 29.91 in 10.0 mi North 6.9 mph - N/A   Clear
9:15 PM 50.0 °F - 23.0 °F 35% 29.91 in 10.0 mi North 6.9 mph - N/A   Clear
9:35 PM 48.2 °F - 24.8 °F 40% 29.91 in 10.0 mi North 5.8 mph - N/A   Clear
9:55 PM 48.2 °F - 21.2 °F 34% 29.92 in 10.0 mi NNE 4.6 mph - N/A   Clear
10:15 PM 46.4 °F - 23.0 °F 40% 29.92 in 9.0 mi Calm Calm - N/A   Clear
10:35 PM 46.4 °F 44.3 °F 21.2 °F 37% 29.93 in 10.0 mi NE 4.6 mph - N/A   Clear
10:55 PM 46.4 °F 44.3 °F 21.2 °F 37% 29.93 in 10.0 mi NE 4.6 mph - N/A   Clear
11:15 PM 42.8 °F 40.1 °F 24.8 °F 49% 29.93 in 10.0 mi NE 4.6 mph - N/A   Clear
11:35 PM 42.8 °F - 21.2 °F 42% 29.93 in 10.0 mi Calm Calm - N/A   Clear
11:55 PM 44.6 °F - 21.2 °F 39% 29.93 in 10.0 mi Calm Calm - N/A   Clear